Location: Blazny
(46.0612°N, 84.4033°W)
Time: 22:47:55
(UTC-04:00)

Envisat - Visible Passes

Search period start: 14 September 2024 00:00
Search period end: 24 September 2024 00:00
Orbit: 762 x 764 km, 98.3° (Epoch: 14 September)

Date Brightness Start Highest point End Pass type
(mag) Time Alt. Az. Time Alt. Az. Time Alt. Az.
14 Sep 4.3 04:08:17 10° NNE 04:12:51 33° E 04:14:06 29° SE visible
14 Sep 3.7 05:47:14 10° N 05:51:48 34° WNW 05:54:15 22° WSW visible
15 Sep 5.3 03:32:01 10° NE 03:35:02 16° E 03:36:07 15° ESE visible
15 Sep 2.9 05:09:27 10° N 05:14:31 72° WNW 05:16:15 41° SW visible
16 Sep 3.5 04:32:03 10° NNE 04:37:03 54° E 04:38:15 44° SE visible
16 Sep 4.3 06:11:47 10° NNW 06:15:39 22° WNW 06:18:24 15° WSW visible
17 Sep 4.7 03:55:10 10° NE 03:59:22 25° E 04:00:15 24° ESE visible
17 Sep 3.4 05:33:41 10° N 05:38:30 44° WNW 05:40:24 31° WSW visible
18 Sep 5.6 03:19:41 10° ENE 03:21:27 12° E 03:22:14 11° E visible
18 Sep 2.9 04:56:02 10° NNE 05:01:09 88° ESE 05:02:23 53° SSW visible
18 Sep 4.8 06:36:41 10° NNW 06:39:23 15° WNW 06:42:04 10° W visible
19 Sep 3.9 04:18:47 10° NNE 04:23:35 41° E 04:24:23 38° ESE visible
19 Sep 4.0 05:58:06 10° N 06:02:22 28° WNW 06:04:31 21° WSW visible
20 Sep 5.1 03:42:11 10° NE 03:45:49 20° E 03:46:22 19° E visible
20 Sep 3.0 05:20:10 10° N 05:25:10 57° WNW 05:26:31 43° WSW visible
21 Sep 3.2 04:42:39 10° NNE 04:47:44 68° ESE 04:48:30 58° SSE visible
21 Sep 4.5 06:22:45 10° NNW 06:26:10 18° WNW 06:28:39 13° W visible
22 Sep 4.4 04:05:34 10° NNE 04:10:06 32° E 04:10:30 31° ESE visible
22 Sep 3.6 05:44:28 10° N 05:49:04 36° WNW 05:50:37 29° WSW visible
23 Sep 5.4 03:29:23 10° NE 03:32:15 15° E 03:32:28 15° E visible
23 Sep 2.9 05:06:41 10° N 05:11:46 75° WNW 05:12:37 60° SW visible
23 Sep 4.9 06:48:03 10° NNW 06:49:51 12° NW 06:51:40 10° WNW visible
